Wind_Speed
16 17 18 18 18 19 19 19 20 21 21 22 23 24 25 24 22 18 16 16 15 15 16 18 18 19 21 22 22 23 24 23 23 24 25 25 27 29 31 33 35 36 36
18 19 19 20 20 21 21 20 20 21 23 23 24 25 24 21 18 17 18 16 16 17 18 20 21 22 24 26 26 26 27 28 28 28 29 29 29 30 31 32 34 35 36
20 21 21 21 21 21 21 21 21 22 23 25 24 23 20 18 17 17 17 17 17 19 21 22 24 26 27 28 29 30 31 32 33 32 33 34 35 34 33 33 33 34 35
22 22 23 23 22 22 20 20 21 23 24 23 21 19 18 17 17 18 18 19 20 22 23 25 27 28 31 32 34 34 34 35 36 36 36 36 37 39 38 36 36 36 36
24 25 24 23 21 20 19 19 20 22 22 21 20 18 18 18 18 19 20 21 23 25 26 28 30 31 33 35 36 36 37 37 38 38 39 38 38 39 41 40 40 40 41
29 26 24 22 20 17 17 18 19 20 21 21 21 19 19 19 20 21 23 24 25 28 29 30 32 34 35 36 37 38 39 38 38 38 38 39 40 41 43 42 43 44 45
27 26 22 20 18 16 16 16 18 20 21 22 22 22 22 22 23 24 25 26 29 30 32 33 35 37 38 39 39 40 40 41 41 41 41 42 44 45 47 49 49 50 51
29 25 20 18 16 15 14 15 18 19 20 22 22 21 22 25 24 26 27 29 30 32 35 36 38 40 41 42 42 43 43 43 44 45 47 48 49 51 52 53 55 56 58
28 23 20 18 16 14 13 14 17 19 21 22 23 23 25 25 26 27 29 31 33 34 37 38 38 39 40 41 42 42 43 44 45 48 49 51 53 55 57 58 60 62 64
23 24 22 19 16 13 13 15 17 19 22 25 26 26 27 29 31 32 32 34 36 37 38 38 36 36 37 39 40 43 45 46 49 51 53 56 57 59 60 62 64 66 67
27 29 22 20 16 14 14 16 19 21 24 27 29 30 31 32 34 35 35 36 40 41 44 45 44 42 43 46 48 51 53 54 55 57 57 59 60 60 63 64 66 67 69
27 27 23 20 17 16 17 19 22 25 28 30 33 34 35 35 36 39 42 41 42 41 43 44 44 46 48 50 52 54 55 57 60 62 64 65 66 67 67 67 66 65 66
28 25 23 20 18 18 19 22 25 29 32 35 37 39 39 38 39 41 44 44 45 42 43 45 48 52 53 55 56 58 60 63 65 65 64 63 62 62 62 63 61 61 60
25 25 23 20 20 20 22 25 29 33 36 38 41 41 41 41 42 43 43 45 46 46 48 50 51 54 56 59 61 62 65 65 64 62 59 56 56 55 55 54 53 55 56
26 25 22 21 21 23 25 29 33 37 39 41 44 44 43 43 43 42 42 44 48 53 55 54 56 57 59 60 61 62 63 62 58 53 51 49 47 47 46 46 44 44 45
25 23 22 22 23 25 29 33 37 40 42 44 47 45 45 44 43 43 45 47 50 53 59 57 58 58 59 60 60 60 57 52 48 46 46 45 43 41 41 42 41 40 41
24 23 23 24 25 28 32 36 40 43 43 47 47 46 45 44 43 45 48 50 52 54 59 59 59 59 58 57 55 51 45 45 46 43 39 39 38 40 39 38 40 43 43
24 24 24 25 28 32 36 40 43 43 45 47 47 46 44 44 46 48 50 52 53 55 58 61 60 58 54 49 47 46 46 47 44 39 39 36 32 35 38 40 41 41 42
25 25 26 27 30 34 40 42 42 44 47 46 46 44 44 47 48 50 51 53 54 56 56 58 56 50 46 45 46 46 46 42 40 38 32 32 33 35 38 40 38 39 40
25 25 26 30 33 39 42 42 43 45 45 45 44 44 46 48 49 50 52 53 54 54 52 49 47 45 47 46 45 45 43 40 34 34 30 35 38 35 32 31 34 37 40
25 25 29 32 38 41 40 42 45 45 45 44 44 46 48 50 51 51 51 51 50 48 45 42 45 47 46 44 42 41 40 36 32 37 37 36 36 30 28 28 33 36 33
25 28 31 36 40 39 41 43 43 43 43 44 45 46 48 49 50 50 49 46 45 42 41 43 45 45 42 39 40 37 39 40 38 33 41 34 32 27 26 29 28 26 20
27 30 35 38 38 40 41 42 41 41 43 45 46 47 48 47 47 47 45 42 40 39 40 42 43 41 39 36 38 38 37 39 40 36 36 33 29 26 27 24 23 21 17
29 34 35 36 39 40 39 40 40 42 44 46 47 47 46 45 44 43 42 41 40 39 38 38 37 36 34 35 36 37 38 40 37 32 35 35 30 29 26 18 19 17 18
32 32 34 37 38 39 37 39 41 43 45 46 46 44 44 44 43 42 41 40 39 36 34 32 32 33 32 31 33 37 36 38 37 31 31 37 32 31 29 16 19 18 23
30 33 35 36 35 36 38 39 42 44 46 45 42 43 43 43 42 38 38 37 37 34 32 29 28 28 30 30 31 32 32 34 38 37 32 38 37 38 34 18 14 20 26
Wind_Direction
289 298 303 304 303 300 300 300 299 299 300 300 299 298 298 296 293 289 290 290 290 292 294 295 297 296 295 294 293 292 290 287 284 284 281 276 272 268 265 262 260 259 259
284 293 298 301 299 297 295 295 296 297 298 299 300 299 297 293 287 286 287 287 290 293 295 296 296 296 295 294 293 291 289 288 286 284 283 281 277 274 272 269 266 264 262
276 287 294 297 292 289 290 293 295 297 299 300 300 296 293 287 283 283 284 287 291 294 295 295 296 297 296 295 293 292 290 289 287 285 284 282 280 278 275 273 271 268 266
276 284 290 292 290 288 288 290 295 300 302 303 303 298 292 287 286 284 286 291 295 295 294 298 298 299 298 297 295 293 291 289 288 286 283 280 278 277 274 273 272 271 270
274 277 284 286 284 281 283 290 297 302 307 311 309 302 296 291 288 288 289 291 293 293 295 297 297 298 297 297 294 291 289 287 285 284 283 282 279 277 275 273 271 270 270
276 278 280 280 276 275 282 291 300 307 315 314 311 306 298 293 291 290 292 293 292 293 295 296 297 298 297 295 292 291 289 287 285 283 282 280 279 278 277 275 274 273 272
274 271 269 269 267 271 281 294 306 317 319 317 314 308 301 297 293 292 292 291 292 294 296 297 298 297 297 296 293 291 289 288 288 286 284 281 279 278 277 277 276 274 273
268 265 264 257 257 267 284 303 315 321 323 322 318 310 303 296 291 290 290 292 294 297 298 299 299 298 297 296 294 291 290 290 289 287 285 284 282 280 279 278 276 275 274
266 260 261 249 252 267 288 306 317 322 325 325 322 317 310 302 299 295 294 295 295 296 297 297 296 296 294 293 290 289 289 287 285 284 284 283 283 282 280 279 277 275 274
255 247 254 243 251 267 287 303 313 320 324 326 324 319 314 308 304 301 299 299 298 296 295 294 293 292 291 290 291 291 290 289 288 287 285 284 283 282 281 280 278 276 274
240 251 241 240 251 267 285 299 307 314 320 324 323 320 316 312 308 305 302 301 302 303 303 302 303 305 304 303 302 299 298 296 295 293 291 288 286 284 282 280 278 277 275
239 244 233 240 253 270 285 296 305 312 317 321 322 320 318 314 311 310 308 307 305 305 304 305 306 304 303 301 300 300 299 298 295 294 293 292 292 290 287 285 282 279 275
241 230 232 243 258 273 286 296 304 310 314 318 322 320 318 315 313 311 309 308 307 308 307 307 308 305 306 305 303 302 300 299 298 297 296 293 289 286 284 282 280 279 278
225 224 234 248 263 277 289 297 304 309 313 316 319 318 316 315 313 311 310 309 308 308 308 308 309 307 307 306 306 305 303 302 301 299 296 294 290 287 284 282 280 278 277
219 227 239 254 268 280 290 299 305 309 312 313 317 316 315 313 311 310 310 309 310 310 309 311 310 311 310 307 306 304 304 303 301 301 299 297 294 291 288 286 284 283 281
223 233 246 260 273 285 294 301 305 309 311 312 315 314 313 313 312 311 311 310 309 309 309 311 310 309 308 307 305 304 304 303 304 307 304 301 298 295 292 291 289 285 284
229 240 254 268 280 289 296 302 305 308 309 312 313 313 313 312 311 311 310 309 309 309 308 310 309 308 306 304 303 303 305 306 306 307 303 299 300 297 294 291 289 288 289
236 247 258 270 283 289 299 301 304 306 310 311 311 312 312 311 311 311 310 310 310 310 309 309 309 307 305 306 307 310 310 311 310 308 304 305 301 296 296 292 292 293 289
241 254 266 278 285 294 298 300 303 307 309 309 311 312 312 311 311 310 310 311 310 309 309 308 307 308 308 309 311 310 309 308 309 307 310 309 303 302 299 298 296 292 291
247 261 274 283 290 299 297 301 305 307 308 310 311 311 310 310 311 311 312 311 310 309 307 306 308 310 311 313 311 309 308 308 310 307 313 310 305 308 300 297 296 294 291
257 270 279 286 297 296 299 303 305 307 310 310 310 310 310 311 312 313 312 312 310 309 310 310 311 311 312 312 309 309 309 311 313 313 316 308 312 308 304 300 298 295 300
266 276 284 293 295 297 302 303 306 309 309 310 310 311 312 313 313 314 313 312 312 313 314 312 312 311 312 312 311 313 311 312 312 317 316 312 313 307 309 306 300 302 306
275 284 291 293 296 299 302 306 308 309 310 310 312 312 313 314 315 314 313 314 314 314 314 313 313 313 313 314 311 311 310 312 314 321 316 315 317 314 318 310 291 296 305
282 289 291 295 298 301 306 307 308 309 310 311 313 315 314 315 315 315 313 313 315 317 315 314 312 314 313 312 311 312 313 312 316 320 325 320 322 319 317 308 285 289 296
286 293 295 298 301 305 308 308 310 312 312 314 315 315 316 317 316 316 314 315 315 317 315 315 314 314 313 313 312 312 314 314 317 321 330 317 319 320 319 310 269 276 288
291 295 297 300 305 307 309 310 312 313 314 315 315 318 319 316 316 317 315 315 316 318 319 318 317 317 316 315 315 315 319 321 319 319 332 319 319 320 319 328 267 274 279
Height
3132 3131 3131 3130 3129 3129 3128 3127 3126 3123 3122 3120 3118 3117 3115 3113 3111 3109 3109 3107 3106 3106 3105 3104 3102 3101 3100 3099 3098 3097 3096 3096 3095 3095 3094 3094 3093 3093 3092 3092 3092 3093 3095
3128 3129 3128 3128 3127 3126 3125 3124 3122 3120 3118 3116 3114 3112 3110 3109 3107 3106 3104 3105 3103 3102 3102 3100 3099 3097 3096 3095 3094 3092 3091 3090 3089 3089 3088 3087 3086 3086 3085 3085 3085 3085 3086
3124 3125 3125 3125 3124 3124 3122 3121 3118 3116 3114 3112 3110 3108 3106 3105 3103 3102 3101 3100 3099 3098 3097 3096 3094 3093 3091 3089 3088 3086 3085 3083 3082 3082 3081 3080 3078 3078 3077 3077 3077 3076 3077
3120 3121 3121 3121 3120 3119 3118 3117 3114 3112 3110 3108 3105 3104 3102 3101 3099 3098 3097 3095 3094 3093 3092 3090 3088 3086 3084 3083 3081 3079 3077 3076 3074 3073 3073 3072 3071 3069 3069 3069 3068 3068 3068
3116 3117 3117 3117 3116 3115 3114 3113 3111 3108 3106 3103 3101 3100 3098 3097 3095 3094 3092 3090 3089 3088 3086 3084 3082 3080 3078 3075 3074 3072 3070 3068 3066 3065 3063 3062 3061 3060 3059 3059 3059 3058 3058
3112 3113 3112 3112 3111 3111 3110 3109 3107 3104 3102 3100 3098 3096 3094 3093 3091 3089 3087 3085 3084 3082 3080 3078 3075 3073 3070 3068 3066 3063 3060 3059 3057 3056 3054 3053 3051 3050 3048 3048 3048 3047 3047
3107 3107 3107 3107 3107 3106 3106 3105 3103 3101 3098 3096 3094 3092 3090 3088 3086 3084 3082 3079 3077 3075 3073 3070 3067 3064 3062 3059 3057 3054 3051 3049 3047 3046 3044 3042 3041 3039 3038 3036 3035 3034 3034
3101 3102 3102 3102 3102 3102 3102 3101 3099 3097 3095 3093 3090 3088 3085 3083 3082 3079 3077 3074 3071 3068 3065 3062 3058 3055 3052 3049 3046 3043 3041 3039 3037 3035 3033 3030 3028 3026 3025 3023 3022 3020 3018
3096 3097 3098 3098 3098 3098 3098 3097 3095 3093 3091 3090 3086 3084 3081 3078 3076 3074 3071 3068 3064 3061 3058 3054 3051 3047 3043 3040 3037 3034 3031 3030 3027 3023 3020 3018 3015 3013 3010 3008 3005 3003 3002
3092 3093 3094 3094 3094 3094 3094 3093 3091 3090 3088 3085 3082 3080 3076 3072 3068 3066 3064 3059 3056 3053 3050 3047 3044 3040 3036 3031 3027 3024 3020 3018 3014 3010 3007 3004 3000 2997 2994 2990 2987 2984 2982
3087 3088 3089 3090 3090 3090 3090 3089 3088 3086 3084 3080 3077 3073 3070 3065 3061 3057 3055 3052 3046 3042 3037 3032 3028 3025 3021 3016 3012 3008 3004 3001 2997 2993 2990 2987 2983 2980 2975 2970 2967 2963 2960
3081 3083 3085 3086 3086 3086 3085 3085 3083 3081 3078 3075 3071 3067 3063 3059 3054 3048 3043 3041 3036 3034 3027 3022 3019 3015 3010 3006 3001 2996 2991 2986 2981 2976 2971 2966 2961 2955 2950 2946 2943 2940 2937
3076 3078 3080 3082 3082 3081 3081 3080 3078 3075 3072 3068 3064 3060 3055 3051 3046 3040 3034 3028 3024 3023 3018 3014 3009 3002 2997 2991 2986 2982 2976 2971 2965 2959 2954 2949 2942 2937 2932 2926 2922 2919 2917
3071 3074 3076 3077 3077 3077 3076 3074 3072 3069 3065 3061 3057 3052 3047 3042 3037 3031 3025 3018 3012 3009 3006 3001 2997 2990 2983 2977 2970 2964 2958 2951 2945 2940 2934 2929 2924 2919 2914 2910 2907 2903 2899
3067 3070 3072 3072 3072 3071 3070 3068 3066 3062 3058 3053 3048 3043 3038 3033 3028 3022 3016 3010 3002 2994 2991 2988 2981 2974 2966 2960 2954 2946 2940 2934 2928 2923 2918 2912 2907 2902 2897 2894 2892 2889 2887
3064 3066 3067 3068 3067 3066 3064 3062 3058 3054 3049 3044 3040 3035 3029 3023 3018 3012 3006 3000 2994 2987 2977 2974 2967 2960 2953 2945 2937 2930 2924 2918 2914 2908 2902 2896 2890 2887 2884 2881 2878 2876 2874
3060 3061 3062 3062 3062 3060 3058 3055 3051 3046 3041 3036 3031 3025 3020 3013 3008 3002 2996 2990 2983 2976 2966 2962 2954 2946 2939 2931 2924 2917 2912 2906 2901 2897 2891 2886 2881 2876 2872 2869 2866 2863 2861
3055 3056 3056 3056 3056 3054 3051 3047 3042 3038 3033 3027 3021 3015 3009 3004 2998 2992 2986 2979 2971 2964 2955 2945 2941 2934 2926 2919 2912 2905 2899 2894 2889 2885 2880 2877 2872 2867 2863 2858 2855 2852 2849
3050 3051 3051 3051 3049 3047 3043 3039 3034 3029 3024 3018 3012 3006 3000 2994 2988 2982 2974 2967 2960 2952 2943 2934 2926 2921 2914 2908 2901 2895 2889 2884 2880 2875 2872 2867 2862 2858 2853 2847 2845 2840 2836
3045 3046 3046 3045 3043 3039 3035 3030 3026 3021 3015 3009 3002 2997 2991 2985 2978 2971 2963 2956 2947 2939 2932 2923 2915 2910 2903 2898 2891 2884 2879 2875 2871 2866 2865 2858 2851 2848 2844 2839 2834 2829 2824
3041 3041 3040 3038 3035 3031 3027 3022 3016 3010 3005 2999 2994 2988 2981 2974 2966 2960 2952 2944 2935 2928 2920 2912 2906 2899 2894 2888 2881 2876 2869 2864 2864 2857 2853 2849 2841 2839 2835 2830 2824 2819 2815
3035 3034 3032 3030 3026 3023 3018 3013 3007 3001 2996 2990 2985 2978 2971 2963 2955 2947 2939 2932 2924 2916 2910 2903 2897 2890 2885 2880 2873 2868 2862 2856 2853 2855 2839 2840 2833 2830 2825 2820 2814 2810 2808
3029 3027 3025 3022 3018 3014 3009 3003 2998 2993 2987 2981 2974 2967 2960 2952 2944 2936 2929 2922 2916 2911 2904 2895 2888 2883 2877 2873 2866 2862 2857 2851 2846 2843 2833 2829 2825 2821 2816 2812 2807 2804 2801
3022 3019 3017 3014 3010 3005 3000 2994 2989 2984 2978 2971 2964 2956 2949 2942 2935 2926 2918 2913 2907 2902 2895 2889 2882 2877 2871 2866 2860 2855 2849 2843 2839 2835 2827 2819 2817 2812 2809 2805 2801 2798 2795
3014 3012 3010 3006 3001 2995 2992 2986 2981 2975 2968 2961 2954 2947 2940 2932 2924 2918 2910 2904 2899 2894 2889 2883 2877 2871 2866 2861 2855 2848 2844 2835 2830 2827 2824 2813 2810 2804 2800 2799 2794 2792 2789
3009 3006 3002 2998 2993 2989 2984 2979 2972 2965 2958 2952 2945 2938 2930 2922 2914 2908 2902 2896 2891 2886 2881 2877 2873 2867 2860 2856 2850 2843 2836 2830 2823 2818 2818 2807 2801 2796 2787 2789 2789 2787 2782